Regional Weather Roundup
Issued by NWS Green Bay, WI

Home | Current Version | Previous Version | Text Only | Print | Product List | Glossary On
Versions: 1 2 3 4 5 6 7 8 9 10 11 12 13 14 15 16 17 18 19 20 21 22 23 24 25 26 27 28 29 30 31 32 33 34 35 36 37 38 39 40 41 42 43 44 45 46 47 48 49 50
000
ASUS43 KGRB 282111
RWRGRB

NORTH-CENTRAL AND NORTHEAST WISCONSIN REGIONAL WEATHER ROUNDUP
NATIONAL WEATHER SERVICE GREEN BAY WI
400 PM CDT SAT MAY 28 2016

WIZ005-009-010>012-018-019-282200-
NORTH CENTRAL WISCONSIN

CITY           SKY/WX    TMP DP  RH WIND       PRES   REMARKS
IRONWOOD       CLOUDY    61  61 100 CALM      29.74R
MANITOWISH WTR NOT AVBL
ARBOR VITAE      N/A     65  64  95 NW3       29.77S
EAGLE RIVER      N/A     72  63  73 SW10G22   29.76R
LAND O LAKES   PTSUNNY   72  66  82 S14G20    29.77R
RHINELANDER    PTSUNNY   72  65  78 SW12      29.78R
PHILLIPS       LGT RAIN  64  64 100 CALM      29.77S
ANTIGO         PTSUNNY   74  63  67 S18G25    29.80S
TOMAHAWK       LGT RAIN  67  63  87 SW6       29.80R
MERRILL        PTSUNNY  N/A N/A N/A SW18G24   29.78S
$$

WIZ013-073-282200-
NORTHEAST WISCONSIN

CITY           SKY/WX    TMP DP  RH WIND       PRES   REMARKS
IRON MOUNTAIN  PTSUNNY   76  64  66 S14       29.77F
MARINETTE      MOSUNNY   79  67  66 S12G24    29.80F
OCONTO         CLOUDY    79  67  68 SW8       29.80S
$$

WIZ017-030-035>037-045-282200-
CENTRAL WISCONSIN

CITY           SKY/WX    TMP DP  RH WIND       PRES   REMARKS
MEDFORD        PTSUNNY   71  66  83 SW12      29.79S
WAUSAU         PTSUNNY   78  61  55 SW15G26   29.77R
MOSINEE        PTSUNNY   73  63  68 MISG      29.79S
MARSHFIELD     PTSUNNY   77  60  55 SW16      29.78S
WISC RAPIDS    MOSUNNY   79  58  48 SW16G26   29.80F
STEVENS POINT  MOSUNNY   77  59  54 SW18      29.80S
WAUPACA        PTSUNNY   83  63  51 SW14      29.80S
SHAWANO        PTSUNNY   82  62  50 SW9G20    29.79F
CLINTONVILLE   MOSUNNY   81  59  47 SW20      29.79F
WAUTOMA        MOSUNNY   81  63  54 SW17      29.79F
$$

WIZ038-039-048-051-282200-
FOX VALLEY

CITY           SKY/WX    TMP DP  RH WIND       PRES   REMARKS
NWS GREEN BAY  MOSUNNY   81  67  62 S15G23    29.80F
APPLETON       PTSUNNY   79  61  53 S16       29.80F
OSHKOSH        MOSUNNY   81  65  58 S20G26    29.81F
FOND DU LAC    MOSUNNY   80  64  58 S17       29.82S
$$

WIZ022-050-052-282200-
EAST CENTRAL WISCONSIN

CITY           SKY/WX    TMP DP  RH WIND       PRES   REMARKS
EPHRAIM        FAIR      71  64  77 S21G28    29.83S
STURGEON BAY   NOT AVBL
MANITOWOC      SUNNY     69  60  73 S17G24    29.85F
SHEBOYGAN      SUNNY     76  64  66 S15G21    29.84F
$$

LMZ563-521-522-541>543-282200-
LAKESHORE

STATION/POSITION TIME  TEMP    WIND        PRES    VSBY  WAVE
                       AIR SEA DIR/SP/G                  HT/PER
                 (UTC) (F)     (DEG/KT/KT) (MB)    (MI)  (FT/S)
SHEBOYGAN LKSHOR 2100   57     180/ 16/ 17 1011.2F
KEWAUNEE LKSHORE 2000   54     180/ 14/ 16 1010.5F
ALGOMA MARINA    2017          210/ 13/ 14   N/A
NORTHPORT PIER   2000   66     160/ 11/ 17 1010.5F
N MID LAKE BUOY  2050   54 46  190/ 17/ 21 1010.7F         4/ 5
SISTER BAY LKSHO 2035   71     180/ 20/ 29   N/A
CHAMBERS ISLAND  2040   73     160/  6/ 20 1009.8S
MENOMINEE LKSHOR 2000   68     160/ 14/ 19 1008.6F
$$




USA.gov is the U.S. government's official web portal to all federal, state and local government web resources and services.